Location: Newark
(50.8922°N, 11.6094°E)
Time: 20:49:52
(UTC+00:00)

N. Korean satellite - Pass Details

Date: 04 February 2020
Orbit: 456 x 505 km, 97.2° (Epoch: 22 February)

Event Time Altitude Azimuth Distance (km) Brightness Sun altitude
Rises 06:06:00 0° 2° (N) 2,572 10.1 -6.7°
Reaches altitude 10° 06:08:19 10° 349° (N) 1,694 9.0 -6.4°
Maximum altitude 06:11:18 24° 294° (WNW) 1,058 7.7 -5.9°
Drops below altitude 10° 06:14:18 10° 239° (WSW) 1,703 9.0 -5.5°
Sets 06:16:38 0° 226° (SW) 2,588 10.0 -5.1°
